Regional Weather Roundup
Issued by NWS Wakefield, VA

Home | Current Version | Previous Version | Text Only | Print | Product List | Glossary Off
Versions: 1 2 3 4 5 6 7 8 9 10 11 12 13 14 15 16 17 18 19 20 21 22 23 24 25 26 27 28 29 30 31 32 33 34 35 36 37 38 39 40 41 42 43 44 45 46 47 48 49 50

000
ASUS41 KAKQ 051210
RWRAKQ

REGIONAL WEATHER ROUNDUP
NATIONAL WEATHER SERVICE WAKEFIELD VA
700 AM EST THU MAR 05 2015

Note: "fair" indicates few or no clouds below 12,000 feet with no
significant weather and/or obstructions to visibility. * = Denotes
station may not report precipitation (e.g., rain,snow,etc.),
thunder or fog.

VAZ042-051-052>054-056-051300-
NORTHERN VIRGINIA

CITY           SKY/WX    TMP DP  RH WIND       PRES   REMARKS
WASH NATIONAL  LGT RAIN  38  32  79 N14       30.06R FOG
DULLES         LGT SNOW  34  30  86 N14       30.06R FOG     WCI  24
FORT BELVOIR   DRIZZLE   36  33  90 N7        30.07S
QUANTICO       LGT RAIN  36  33  89 NE10      30.07S FOG
FREDERICKSBRG* DRIZZLE   37  37 100 N12G21    30.05R
STAFFORD*      DRIZZLE   35  50 100 N8        30.10R
WARRENTON      LGT RAIN  36  36 100 N12G17    30.05R
CULPEPER*      DRIZZLE   36  34  93 N8        30.05R
MANASSAS*      CLOUDY    34  34 100 N12       30.07S
LEESBURG*      LGT SNOW  34  34 100 N16G24    30.08S WCI  23
WINCHESTER     LGT SNOW  32  28  86 NW10G16   30.07R WCI  24
FRONT ROYAL*   CLOUDY    32  30  93 N6        30.06R
LURAY*         LGT SNOW  34  34 100 NE7       30.04R
$$

VAZ048-049-060>072-079>083-051300-
CENTRAL AND SOUTH CENTRAL VIRGINIA

CITY           SKY/WX    TMP DP  RH WIND       PRES   REMARKS
RICHMOND       LGT RAIN  39  36  89 N13G22    30.03R FOG
CHESTERFIELD*  CLOUDY    39  27  60 N10       30.05R
PETERSBURG*    LGT RAIN  41  39  95 N18G28    30.01R
HANOVER        MIX PCPN  37  35  92 NE7       30.05R FOG
TAPPAHANNOCK*  LGT RAIN  38  36  92 N10       30.05R
QUINTON*       CLOUDY    37  36  95 N8        30.02R
CHARLOTTSVILLE LGT RAIN  37  36  96 NE7       30.00R FOG
GORDONSVILLE*  CLOUDY    35  33  94 NE8G18    30.02R
ORANGE*        DRIZZLE   36  34  93 N10G18    30.05R
LOUISA*        DRIZZLE   37  36  93 NE12G18   30.02R
BUMPASS*       CLOUDY    36  35  95 N5        30.03R
FARMVILLE*     DRIZZLE   42  42 100 NE13G18   29.85R
CREWE*         CLOUDY    40  39  94 NE9G20    29.99R
FORT PICKETT*  CLOUDY    41  40  98 NE17G24   29.99R
CHASE CITY*    CLOUDY    49  49 100 NE8G17    29.94R
CLARKSVILLE*   CLOUDY    50  50 100 NE6       29.90F
SOUTH HILL*    CLOUDY    46  44  96 NE6       30.00R
LAWRENCEVILLE* CLOUDY    44  44  99 NE6       29.95R
EMPORIA*       DRIZZLE   43  43 100 N12G18    29.98R
$$

VAZ088>098-051300-
SOUTHEAST VIRGINIA

CITY           SKY/WX    TMP DP  RH WIND       PRES   REMARKS
NORFOLK        LGT SNOW  38  36  92 N16       29.99R VSB 1
VIRGINIA BEACH LGT RAIN  42  39  89 N8        29.98R FOG
NORFOLK NAVAL  LGT RAIN  42  37  82 N20G26    30.01R FOG
WEST POINT*    CLOUDY    43  41  91 N3        30.03R
SALUDA*        CLOUDY    39  37  95 N6        30.02R
NEWPORT NEWS   LGT RAIN  43  39  86 NE13G20   29.99S FOG
LANGLEY AFB    MIX PCPN  40  39  95 NE20G25   29.99S FOG
FORT EUSTIS    DRIZZLE   43 N/A N/A E9        29.98R
WILLIAMSBURG*  CLOUDY    45  43  93 NE6       30.01R
HR EXEC AP*    CLOUDY    43  39  87 NE9G16    30.01R
FRANKLIN*      DRIZZLE   44  43  96 NE10G17   29.97S
WAKEFIELD      LGT RAIN  44  41  89 NE8       29.99R FOG
$$

VAZ020-022-025-037-045-051300-
WEST CENTRAL AND SOUTHWEST VIRGINIA

CITY           SKY/WX    TMP DP  RH WIND       PRES   REMARKS
STAUNTON*      LGT RAIN  33  32  96 N12       30.04R WCI  24
WAYNESBORO*    CLOUDY    33  32  98 N6        29.99R
HOT SPRINGS VA MIX PCPN  30  30 100 NW8       29.91R VSB<1/4
LYNCHBURG      LGT RAIN  43  43 100 N13       29.95R FOG
DANVILLE       CLOUDY    52  49  89 NE7       29.90S
SOUTH BOSTON*  CLOUDY    51  49  95 NE5       29.91R
MARTINSVILLE   RAIN      46  46 100 N9G17     29.95R
ROANOKE        RAIN      39  37  92 N8        30.01R FOG
BLACKSBURG     RAIN      33  32  98 W5        30.01R
DUBLIN*        MIX PCPN  34  33  96 NW3       30.00S
MARION*        LGT RAIN  35  33  93 CALM      30.00R
HILLSVILLE*    MIX PCPN  34  34  99 NW16      29.96R WCI  24
RICHLANDS*     SNOW      31  30  94 CALM      29.96F VSB 1/4
WISE*          MIX PCPN  30  30 100 N8        29.98F VSB 1/2
ABINGDON*      LGT RAIN  36  35  97 E6        29.95F
$$

MDZ021>025-VAZ099-100-051300-
SOUTHERN MARYLAND AND THE DELMARVA PENINSULA

CITY           SKY/WX    TMP DP  RH WIND       PRES   REMARKS
PATUXENT RIVER LGT RAIN  36  33  89 N15       30.04R FOG
BAY BRIDGE APT LGT RAIN  34  32  93 N8        30.05S
LEONARDTOWN    CLOUDY    34  32  93 NE3G17    30.05F
DOVER          LGT RAIN  35  35 100 NW10      30.04R
GEORGETOWN     LGT RAIN  36  34  92 N7        30.04R FOG
EASTON         RAIN      36  36 100 N10       30.08S FOG
CAMBRIDGE      CLOUDY    36  34  93 N12G18    30.04S
SALISBURY      LGT RAIN  39  35  86 N9        30.03R FOG
OCEAN CITY     LGT RAIN  37  36  96 N9        30.03R FOG
WALLOPS ISLAND LGT RAIN  38  36  92 NE12      30.03R FOG
ACCOMACK*      DRIZZLE   37  36  93 N7        30.02R
$$

NCZ012>017-030>032-051300-
NORTH CENTRAL AND EASTERN NORTH CAROLINA

CITY           SKY/WX    TMP DP  RH WIND       PRES   REMARKS
ROANOKE RAPIDS CLOUDY    50  50 100 NE13      29.93R
RALEIGH        CLOUDY    63  58  83 W5        29.89R
ELIZABETH CITY CLOUDY    48  46  93 N13       29.96R
AHOSKIE*       CLOUDY    49  48  97 N14       29.95R
EDENTON*       CLOUDY    62  60  94 N3        29.92R
CURRITUCK*     CLOUDY    45  43  94 N17G23    29.98R FOG
KILL DEVIL HLS CLOUDY    63  63 100 SW6G20    29.91R
MANTEO         CLOUDY    61  59  94 SW15      29.92R
CAPE HATTERAS  FOG       59  59 100 SW14      29.96S VSB 1/2
TARBORO*       CLOUDY    66  61  84 SW6       29.91R
GOLDSBORO      PTCLDY    66  66  99 S12       29.88S
WASHINGTON     CLEAR     66  62  87 S9        29.91S
GREENVILLE     PTCLDY    64  63  94 SW8       29.93R
NEW BERN       CLEAR     64  61  90 S10       29.95S
WILMINGTON     CLEAR     62  60  93 S10       29.98S
$$

VAZ048-051300-
ELSEWHERE

CITY           SKY/WX    TMP DP  RH WIND       PRES   REMARKS
HARRISBURG PA  SNOW      31  29  92 NW8       30.07R VSB 1/2
BALTIMORE      LGTSLEET  34  32  92 N6        30.05R FOG
ANNAPOLIS      MIX PCPN  35  30  82 N12       30.06R
ANDREWS AFB    LGT RAIN  35  34  96 N9        30.04S
PHILADELPHIA   LGT SNOW  33  31  92 N5        30.07R VSB 1
HENDERSON NC   CLOUDY    52  50  94 NE3       29.90S
GREENSBORO     LGT RAIN  51  50  96 NE10      29.87F
ROCKY MOUNT    MOCLDY    63  60  90 SW3       29.90R
$$

VAZ100-051300-
MARINE

STATION/POSITION TIME  TEMP    WIND        PRES    WAVE   SWELL
                       AIR SEA DIR/SP/G            HT/PER HT/PER
                 (UTC) (F)     (DEG/KT/KT) (MB)    (FT/S) (FT/S)
BRANDYWINE LGT   1200   34 31  340/ 13/ 15 1016.7F
CAPE MAY NJ      1200   34 35  310/  6/ 12 1016.5R
LEWES DE         1200   34 32  340/ 13/ 16 1016.5F
15NM E FENWICK I 1200   35 36              1015.7R   4/ 8
OCEAN-CITY-INLET 1200   37 33  360/ 12/ 16 1015.9R
WACHAPREAGUE VA  1200   41 40   10/  8/ 13 1015.8R
THOMAS POINT MD  1200   35 32  360/ 15/ 17 1018.4R
COVE POINT MD    1200   33      20/ 16/ 19 1017.0F
SOLOMONS ISLAND  1200      33                N/A
BISHOPS HEAD MD  1200   36 35  360/  7/ 11 1016.5R
CAMBRIDGE MD     1200   36 32   10/ 13/ 16 1017.6R
LEWISETTA VA     1200   36 34   30/  7/ 15 1016.9S
RAPPAHANNOCK LGT 1200          360/ 20/ 22 1016.8R
STINGRAY PT      1200   35      30/ 10/ 12   N/A
YORK RVR RNG VA  1200   38      30/ 18/ 20 1015.1F
YORKTOWN VA      1200   40 35   30/ 13/ 17 1015.8R
DOMINION TERM VA 1200   43      30/  7/ 16 1015.4F
KIPTOPEKE VA     1200      40   10/  8/ 12   N/A
CHES BAY BRIDGE  1200   37 34  360/ 16/ 18 1015.3R
CAPE HENRY VA    1200   37     350/ 11/ 12 1014.2R
CHESAPEAKE LGHT  1100   39      20/ 21/ 23 1014.6R
WILLOUBY STN VA  1200   40      20/ 19/ 22 1015.9S
S CRANEY ISL VA  1200           20/ 15/ 18 1015.4R
CAPE HENRY BUOY  1200      36                N/A     3/ 7
1ST LANDING BUOY 1200   36     350/ 14/ 17 1015.3R
OFFSHORE WE BUOY 1200      37                N/A     4/ 7   3/ 7
64NM E OF VA BCH 1200   51 51  360/  6/  8 1013.0R   5/ 6   5/ 6
DUCK PIER NC     1200      36  350/ 14/ 16 1012.7R
44100 DUCK FRF   1100      38                N/A     4/ 7   2/11
44056 DUCK FRF   1200      36                N/A     2/ 7   2/11
OREGON INLET NC  1200   50 50  200/ 17/ 19 1013.4S
HATTERAS NC      1200   60 49  230/ 11/ 15 1014.7S
CAPE LOOKOUT NC  1100   61     210/ 14/ 21 1014.9S
$$



USA.gov is the U.S. government's official web portal to all federal, state and local government web resources and services.